STARLINK-4201, 52856

Orbit data source: Space-Track

STARLINK-4201, 52856 is a payload satellite owned by SpaceX/Seattle (US) in LEO that was launched on Fri, 17 Jun 2022 UTC via an FALCON 9 launch vehicle from the Air Force Eastern Test Range (AFETR). Payload-class satellites include a variety of spacecraft equipped with specific instruments for various scientific and technological missions. These include communications satellites like Starlink; space stations such as the ISS; scientific satellites like the Hubble; Earth observation satellites from companies like Planet Labs, Umbra, and HawkEye 360; GPS; miniature CubeSats for education and research; and military/defense satellites.

Loading next visibility...
Identifier
52856, 2022-062AC
Orbit
LEO
Country
Flag of USUS
Related business
Manufacturer
SpaceX/Seattle
Mission
Operational Commercial Communications
Bus & Motor
STARLINK, Unknown motor
Mass
297 kg wet, ~275 kg dry
Launch date (UTC)
2022-06-17 (3 years ago)
Launch vehicle
FALCON 9
Launch site
Air Force Eastern Test Range (AFETR)
Object type
Payload
Rocket body
Debris
Shape & HBR
Box + 1 Pan, 10.1 m
Radar Cross Section
13.562 m², Large (>1 m²)

Expand to show TLE details & history
Last TLE update: 1 day ago

TLE from 1 day ago
0 STARLINK-4201
1 52856U 22062AC  25348.44582271  .00003428  00000-0  23337-3 0  9991
2 52856  53.2179  46.8438 0001371  80.3700 279.7447 15.08835760193059
Epoch: 2025-12-14T10:41Z
TLE epoch observation values (Epoch: 2025-12-14T10:41:59.082Z)
Latitude
-0.00001°
Longitude
162.98899°
Altitude
540.493 km
Speed
7.593 km/s
True Right ascension
03h 07m 22s
True Declination
0° 00' 00"
Sunlit
Object was in full shadow at epoch
Visualization orbit readout
Latitude
Unknown
Longitude
Unknown
Altitude
Unknown
Speed
Unknown
Apparent Right ascension
Unknown
Apparent Declination
Unknown
Sunlit
N/A
Visualization observer readout
Local Sidereal Time
15:11:09
Azimuth
Unknown
Elevation
Unknown
Doppler factor
Unknown
Orbital elements
Apogee altitude
540.95 km
Perigee altitude
539.053 km
Semi-major axis
6,918.138 km
Eccentricity
0.00014
Inclination
53.2179°
RAAN
46.8438°
Arg. of periapsis
80.37°
True anomaly
279.72922°
Mean anomaly
279.7447°
Eccentric anomaly
279.73696°
Mean motion
3.77189 °/min
Orbital period
95.44 mins
BSTAR
0.00023337
Loading maneuver chart data...
Computing Atmospheric mass density...
Loading historical data...
Loading historical data...
Loading historical data...
Loading historical data...
Loading historical data...
Loading historical data...
Loading historical data...

Documentation

Showing up to 5 results
|